Theta_e
325 323 322 323 325 327 328 328 329 329 329 329 329 330 331 331 333 332 332 329 326 327 328 328 328 326 324 324 323 322 320 318 314 313 313 312 310 308 307 306 307 307 308
328 327 326 326 327 328 328 329 329 329 328 328 329 331 331 332 331 331 329 326 326 327 327 327 325 323 324 321 319 316 314 313 314 311 311 309 308 306 305 305 306 306 306
326 324 324 325 326 327 327 328 328 328 328 328 329 330 329 329 329 329 327 325 326 327 326 325 323 323 320 316 315 314 313 313 312 310 308 307 306 305 304 302 301 302 304
324 324 324 324 326 327 326 326 326 326 327 327 327 326 327 328 327 327 326 326 324 326 325 325 324 322 321 318 314 313 312 312 310 308 306 305 305 304 302 301 301 299 301
322 323 323 323 324 324 325 325 325 326 327 326 326 327 326 326 327 328 325 324 324 324 323 323 323 321 320 319 312 311 310 308 307 305 304 303 302 301 300 299 299 299 299
318 317 320 321 323 322 323 324 325 324 324 324 324 325 326 327 326 325 325 325 323 323 321 320 318 317 313 311 310 309 308 307 306 304 303 301 301 300 299 299 298 296 298
313 314 316 316 316 315 316 317 317 317 319 321 322 323 324 324 323 323 323 322 322 319 318 315 313 310 309 309 308 306 305 304 303 303 302 301 300 299 298 298 297 296 296
308 309 311 311 311 312 313 312 312 313 313 313 312 314 314 314 312 312 313 314 312 312 312 312 311 308 306 304 303 302 301 300 300 299 299 299 298 297 297 296 295 295 295
305 306 307 309 309 309 309 309 309 308 308 308 308 308 309 308 307 308 309 310 310 308 307 306 305 304 302 301 302 301 299 299 298 297 296 296 296 295 295 293 293 294 294
302 303 304 305 306 306 306 306 306 306 305 305 305 305 306 305 304 305 305 306 304 303 302 302 302 302 301 301 300 299 298 297 296 295 295 294 293 293 293 293 293 294 294
302 303 303 303 302 302 302 302 303 303 303 303 302 302 302 302 302 302 302 303 303 302 302 302 301 301 300 299 298 298 298 297 295 294 293 293 292 291 291 291 291 291 292
302 301 301 301 301 301 302 302 301 301 301 300 301 302 302 302 302 301 300 299 299 299 299 299 299 298 298 297 297 296 296 295 294 293 293 292 291 290 289 289 288 288 289
302 301 301 300 300 300 300 300 300 300 300 300 300 299 299 299 300 300 300 300 300 300 299 299 298 297 297 296 295 295 295 294 294 293 293 292 291 289 288 287 286 286 286
297 297 299 300 300 300 299 299 299 299 299 298 298 299 299 300 299 299 299 299 299 299 299 298 297 296 296 295 294 294 293 294 294 293 292 292 291 289 289 288 286 285 285
296 295 295 296 296 297 297 297 297 298 297 298 298 298 298 299 299 299 299 298 297 298 298 298 296 295 294 294 294 294 293 292 292 292 292 291 291 290 289 288 286 285 285
294 294 294 293 293 293 293 294 294 294 294 295 295 296 297 297 297 298 297 297 296 296 296 296 296 295 295 294 294 294 293 291 292 291 290 290 290 289 289 288 286 285 283
292 292 291 291 290 290 289 290 290 291 291 292 293 293 294 295 296 296 296 295 294 295 295 294 292 292 292 292 292 292 292 292 292 291 290 290 290 289 288 287 287 285 283
291 290 290 289 289 288 287 287 288 288 289 289 290 290 291 292 293 294 295 295 294 294 292 292 292 292 292 292 292 291 291 291 291 291 291 290 289 288 287 287 287 286 284
289 289 288 286 287 287 286 286 286 286 286 286 286 287 287 289 290 290 292 292 292 293 293 292 292 292 291 291 292 291 291 291 292 291 290 290 289 288 288 287 287 286 285
287 287 286 286 285 285 285 284 284 285 285 285 285 285 286 287 288 288 288 288 289 289 290 290 291 291 291 291 291 292 291 291 291 291 290 290 290 289 288 287 285 284 285
286 286 285 286 285 285 284 284 284 284 284 284 284 284 285 285 285 285 285 286 286 287 287 288 288 289 289 290 290 290 290 291 291 291 291 291 290 289 288 287 287 286 284
285 285 285 285 285 284 284 285 284 284 283 283 283 283 283 283 283 284 284 284 284 284 285 285 286 287 288 288 288 289 289 289 290 290 290 290 290 289 288 287 287 286 285
285 285 286 285 285 284 284 284 284 283 283 283 282 282 282 282 282 282 282 282 282 281 282 283 284 285 286 286 287 288 288 288 288 288 288 288 288 287 287 286 286 286 285
285 286 285 284 284 284 284 284 283 283 283 282 282 281 281 281 281 282 281 281 281 281 280 280 281 283 283 284 285 285 285 286 286 286 286 286 286 286 286 286 286 285 285
286 285 285 284 283 284 284 284 283 283 282 282 281 281 280 280 280 280 280 280 280 280 280 279 280 280 281 281 282 283 284 284 284 285 285 285 285 285 285 285 285 285 285
285 285 285 284 283 284 285 284 283 283 282 281 280 280 280 279 279 278 279 279 278 279 279 279 279 279 279 278 279 279 280 281 282 282 283 283 283 283 284 284 284 284 284
Wind_Speed
30 30 30 33 29 38 30 31 34 36 40 43 44 43 43 42 40 37 34 33 28 26 25 24 23 24 20 17 15 16 15 14 7 8 8 8 6 5 5 6 6 5 7
21 23 23 27 28 33 32 31 32 33 35 39 39 42 44 42 39 37 34 32 29 26 25 27 28 24 18 17 17 16 13 12 12 11 11 10 8 7 10 8 9 9 8
24 25 25 21 28 25 25 28 28 32 34 36 36 37 42 38 35 35 35 32 30 29 31 31 26 23 20 18 14 15 17 15 14 11 11 10 8 7 7 7 9 10 10
25 23 21 24 25 24 18 19 16 25 26 29 29 33 34 37 38 38 36 34 31 29 29 27 27 24 17 16 17 18 18 17 16 13 10 9 8 7 6 8 8 9 10
26 23 22 20 21 15 13 14 13 14 18 22 27 29 36 33 35 38 37 34 30 28 30 27 24 24 21 19 19 23 23 21 17 15 12 9 8 6 5 3 8 10 12
23 21 20 19 17 13 10 9 10 11 12 14 17 19 30 30 34 34 32 33 32 32 34 28 27 22 21 21 21 21 20 22 20 16 14 11 12 9 8 7 7 5 4
29 27 24 21 20 16 14 12 9 7 9 10 13 15 15 19 24 28 33 38 37 37 36 33 24 23 22 19 20 19 18 17 15 15 16 15 11 13 11 9 8 7 7
27 25 22 21 20 18 16 14 12 8 5 4 3 5 8 8 8 9 18 22 25 27 25 24 26 24 22 22 22 19 15 13 11 10 11 9 10 9 9 9 9 8 11
26 24 20 17 17 16 16 14 13 9 8 8 6 4 2 1 3 5 8 9 13 14 18 20 20 21 22 21 18 16 14 12 10 9 7 6 8 8 8 9 7 6 4
24 22 19 18 17 16 14 12 12 9 7 5 5 4 3 1 3 5 6 8 10 14 14 15 16 17 17 18 18 18 17 15 15 13 9 8 8 8 9 9 9 9 7
21 21 21 19 17 15 13 12 10 10 8 5 4 4 3 0 1 3 6 9 11 13 16 17 17 17 20 19 17 16 14 13 13 11 10 9 9 10 9 8 8 9 11
19 21 20 18 17 15 13 12 11 9 8 5 3 4 2 2 2 3 8 8 9 11 14 14 15 17 20 19 17 15 14 13 14 14 12 11 10 10 8 8 9 9 11
19 17 17 15 15 14 12 11 9 7 6 6 6 6 6 5 4 4 8 12 13 12 14 15 15 19 17 16 15 13 13 15 15 14 13 11 9 7 8 8 8 9 10
15 16 17 15 12 11 9 9 8 8 7 7 6 6 8 8 7 8 9 11 13 15 15 14 18 20 19 18 17 15 16 18 18 16 14 10 10 10 9 7 8 9 11
14 12 13 12 11 10 10 11 11 8 9 10 8 7 7 8 8 8 9 10 12 14 16 17 16 18 19 20 19 17 18 18 19 18 16 14 14 11 10 9 10 9 11
13 14 14 13 11 10 9 8 6 8 8 9 8 8 9 9 10 9 10 9 10 11 11 17 20 23 25 25 23 21 20 19 20 18 17 15 15 15 14 14 12 11 10
12 11 10 9 10 11 12 11 11 12 7 7 8 8 8 9 8 10 11 12 12 10 15 15 17 18 20 21 22 25 25 25 22 21 20 21 19 17 17 18 17 14 13
9 6 6 6 5 4 4 6 7 11 13 14 11 10 9 9 9 10 9 10 11 13 16 17 21 24 24 24 24 26 26 25 23 24 23 23 21 21 21 20 19 19 16
9 8 8 8 7 7 7 7 5 5 5 9 12 11 11 12 11 10 9 9 10 14 19 20 21 22 24 24 24 23 23 22 22 22 26 25 24 22 22 21 20 20 17
7 7 7 7 6 6 6 6 6 6 7 7 8 11 13 14 14 14 13 13 13 13 12 14 19 21 22 21 22 20 21 22 23 23 26 25 24 23 23 22 19 19 22
8 6 5 8 9 9 9 8 7 8 8 9 9 9 9 10 11 10 12 12 12 12 12 12 13 13 16 19 20 21 21 21 23 25 26 24 23 23 22 21 19 17 17
8 8 9 10 9 9 9 9 10 10 10 12 12 12 10 10 9 9 9 10 10 10 10 11 11 10 9 9 10 13 17 17 18 18 21 22 20 20 19 18 18 17 16
10 10 11 10 10 9 10 10 9 10 11 12 13 14 14 12 12 10 10 10 12 12 11 11 9 8 7 6 5 4 5 7 8 9 12 13 15 15 15 16 16 15 15
12 12 11 12 12 11 11 12 11 11 12 14 14 14 15 15 13 12 12 13 12 12 12 11 9 8 8 6 3 1 1 3 5 6 7 8 9 9 10 11 11 12 12
14 13 13 14 14 14 14 14 14 14 15 15 16 17 16 15 16 15 14 13 14 15 13 9 7 7 8 9 9 8 6 5 5 6 6 7 8 7 7 7 8 8 8
14 14 15 14 15 15 15 16 16 17 16 17 17 17 16 15 17 16 14 15 14 12 9 9 9 10 11 10 8 8 9 9 9 8 8 7 7 6 6 6 7 8 8
Wind_Direction
192 199 188 193 197 193 194 189 184 185 192 193 196 199 201 201 203 204 203 196 196 193 194 195 196 188 173 184 201 215 205 202 181 199 197 203 220 250 284 298 279 280 279
163 170 189 198 183 184 185 193 186 185 191 195 195 199 200 202 205 202 200 195 198 198 196 186 187 185 174 191 191 205 201 198 199 197 203 210 223 261 288 298 284 264 259
119 109 108 90 164 148 168 184 189 192 195 200 197 199 205 206 208 204 201 201 199 195 190 186 189 191 171 186 195 198 202 202 209 201 204 213 227 246 275 295 310 295 273
108 106 111 119 123 129 136 157 198 203 197 207 212 217 214 208 204 201 201 203 197 197 200 201 204 198 195 192 197 201 203 199 212 213 213 223 234 246 275 301 308 310 305
104 107 113 112 112 111 121 146 162 156 174 199 211 209 210 205 205 206 208 205 202 204 207 211 216 211 209 201 204 205 204 200 202 207 213 218 234 230 243 267 291 301 300
101 93 106 102 98 99 116 151 180 189 205 219 225 222 214 218 217 212 220 216 210 215 203 200 201 198 200 190 195 209 211 202 204 212 215 223 235 235 238 240 264 288 306
76 78 79 81 83 84 92 100 105 140 181 199 207 219 227 241 245 249 245 220 220 211 203 190 178 189 193 188 194 199 201 208 221 226 218 223 229 223 225 224 242 258 269
71 75 78 82 86 86 82 74 71 66 69 92 124 185 217 237 245 246 233 224 212 201 193 185 185 189 192 191 189 189 195 205 212 219 231 225 226 218 222 242 252 264 279
65 69 75 82 83 83 81 75 67 62 60 51 43 39 83 139 244 224 223 201 202 201 197 197 194 191 191 191 192 191 197 201 209 211 216 211 207 217 231 236 231 240 276
67 72 78 82 83 84 83 89 94 86 69 63 61 49 41 239 235 228 230 209 208 194 194 192 196 200 198 197 197 195 196 199 196 197 193 204 214 219 223 229 217 219 222
68 70 67 63 66 71 78 81 89 96 108 106 103 81 39 32 268 273 257 245 232 227 220 210 208 201 200 202 205 202 198 192 192 196 206 218 229 228 226 229 233 225 227
63 62 61 61 61 58 53 49 49 52 55 57 42 50 303 272 223 217 245 255 249 243 241 235 221 212 206 204 202 199 195 190 188 194 204 220 227 232 228 227 233 237 241
50 52 59 55 52 46 51 49 42 35 44 47 25 354 336 325 303 267 251 249 251 258 254 246 238 226 215 214 214 210 202 206 202 205 220 231 231 229 224 232 235 242 247
60 49 47 46 40 40 37 40 42 36 19 10 359 347 331 325 324 313 287 269 262 254 253 246 234 227 224 226 220 215 215 217 218 218 226 219 223 221 226 238 244 245 249
49 44 48 44 35 33 39 32 24 20 356 336 335 335 333 320 319 316 310 288 272 262 258 242 227 223 223 225 225 226 224 222 224 228 232 225 225 232 233 240 243 236 239
46 35 31 28 19 15 10 12 16 353 350 351 347 328 310 296 289 289 301 297 283 276 254 245 238 231 229 231 232 232 232 229 230 236 238 238 230 226 230 232 233 232 240
29 25 22 15 12 7 6 5 347 336 353 355 352 334 343 337 318 299 288 292 286 269 253 253 254 249 245 240 235 236 238 240 239 237 235 233 230 232 227 224 227 222 241
354 2 3 6 10 356 341 345 343 343 339 341 339 335 331 321 316 316 312 285 279 261 256 258 256 260 256 252 250 248 250 248 240 236 231 234 228 225 226 226 225 222 226
325 332 336 340 350 339 342 347 342 339 330 328 335 349 346 348 336 328 321 313 314 280 273 271 275 271 267 265 263 260 252 244 242 239 234 231 230 227 227 233 232 230 230
286 292 311 326 325 326 327 334 339 334 336 338 335 334 348 346 340 342 337 329 329 321 307 295 288 284 280 276 271 260 254 248 239 236 236 233 232 232 231 229 230 225 223
274 286 292 288 305 318 325 328 328 330 334 337 337 339 334 334 325 329 326 338 340 336 328 316 307 296 283 272 266 263 255 250 245 235 231 229 229 229 231 234 238 240 242
264 270 273 284 299 299 306 314 319 322 327 329 332 338 341 336 331 324 323 322 320 321 323 323 318 315 308 290 274 264 258 250 243 237 234 233 227 228 230 229 229 234 233
254 263 271 281 282 289 288 291 299 306 312 319 322 325 327 326 323 321 319 320 318 315 309 302 307 322 318 296 293 276 260 255 242 231 227 224 224 227 227 229 230 231 232
259 268 277 282 284 285 287 290 295 302 306 310 313 315 314 313 312 311 312 310 306 311 315 306 296 287 284 301 297 268 246 239 230 224 211 213 220 220 225 228 232 236 241
267 273 278 282 284 284 286 287 293 300 305 307 311 312 311 307 306 308 306 306 303 306 309 301 290 293 293 290 279 270 246 230 225 223 229 222 216 210 218 230 231 234 235
267 270 274 278 278 279 281 286 294 299 302 306 306 306 306 305 307 306 302 304 305 304 301 293 288 286 291 292 285 276 263 255 252 248 241 227 208 197 209 223 237 235 235